Location: Buckland
(65.9785°N, 161.1281°W)
Time: 22:04:20
(UTC+00:00)

PRISM - Pass Details

Date: 21 January 2021
Orbit: 565 x 584 km, 98.2° (Epoch: 06 March)

Event Time Altitude Azimuth Distance (km) Brightness Sun altitude
Rises 17:52:58 0° 34° (NE) 2,784 ? -12.4°
Reaches altitude 10° 17:56:35 10° 360° (N) 1,887 ? -12.0°
Maximum altitude 17:57:48 11° 342° (NNW) 1,810 ? -11.9°
Enters shadow 17:58:31 11° 332° (NNW) 1,839 ? -11.8°
